Tracking 30743 objects as of 22-Jun-2025
HD Live streaming from Space Station
objects crossing your sky now

FENGYUN 1C DEB

Track FENGYUN 1C DEB now!
10-day predictions


NORAD ID: 33673
Int'l Code: 1999-025DFJ
Perigee: 839.0 km
Apogee: 996.4 km
Inclination: 99.4 °
Period: 103.2 minutes
Semi major axis: 7288 km
RCS: 0.0036 m2 (small)
Launch date: May 10, 1999
Source: People's Republic of China (PRC)
Launch site: Taiyaun Space Center, China (TSC)

Note: This is SATELLITE DEBRIS
Your satellite tracking list
Your tracking list is empty




NASA's NSSDC Master Catalog

Two Line Element Set (TLE):
1 33673U 99025DFJ 25172.06435076  .00000553  00000-0  42291-3 0  9999
2 33673  99.3587 216.3655 0107959 338.4918  50.8076 13.95168202874664
Source of the keplerian elements: AFSPC